Location: Asheville, NC
(35.6000°N, 82.5500°W)
Time: 09:21:28
(UTC-04:00)

PCSat - Pass Details

Date: 17 March 2018
Orbit: 784 x 796 km, 67.0° (Epoch: 24 June)

Event Time Altitude Azimuth Distance (km) Brightness Sun altitude
Rises 06:27:35 0° 345° (NNW) 3,293 12.7 -15.1°
Reaches altitude 10° 06:30:28 10° 360° (N) 2,362 12.1 -14.5°
Maximum altitude 06:34:48 24° 53° (NE) 1,598 11.9 -13.7°
Drops below altitude 10° 06:39:08 10° 106° (ESE) 2,357 13.1 -12.8°
Sets 06:41:59 0° 120° (ESE) 3,283 13.7 -12.2°
